Location: Bonac
(42.8765°N, 0.9753°E)
Time: 23:41:33
(UTC+00:00)

Cosmos 1302 Rocket - Visible Passes

Search period start: 18 April 2026 00:00
Search period end: 28 April 2026 00:00
Orbit: 753 x 771 km, 74.0° (Epoch: 18 April)

Date Brightness Start Highest point End Pass type
(mag) Time Alt. Az. Time Alt. Az. Time Alt. Az.
18 Apr 5.6 00:54:28 31° NE 00:54:28 31° NE 00:57:14 10° NNE visible
18 Apr 5.6 02:34:35 21° NW 02:34:35 21° NW 02:38:21 10° N visible
19 Apr 6.2 00:16:06 19° NE 00:16:06 19° NE 00:17:53 10° NE visible
19 Apr 5.2 01:56:13 31° NW 01:56:13 31° NW 01:59:55 10° N visible
19 Apr 6.6 23:37:43 11° ENE 23:37:43 11° ENE 23:37:59 10° NE visible
20 Apr 5.1 01:17:49 39° N 01:17:49 39° N 01:21:13 10° NNE visible
21 Apr 5.4 00:39:24 34° NNE 00:39:24 34° NNE 00:42:17 10° NNE visible
21 Apr 6.0 02:19:31 15° NW 02:19:42 15° NW 02:22:40 10° NNW visible
22 Apr 5.9 00:00:58 24° NE 00:00:58 24° NE 00:03:08 10° NNE visible
22 Apr 5.6 01:41:05 24° NW 01:41:05 24° NW 01:44:34 10° N visible
22 Apr 6.3 23:22:30 15° NE 23:22:30 15° NE 23:23:38 10° NE visible
23 Apr 5.3 01:02:36 33° NNW 01:02:36 33° NNW 01:06:01 10° N visible
24 Apr 5.3 00:24:07 37° N 00:24:07 37° N 00:27:14 10° NNE visible
24 Apr 6.4 02:04:14 10° WNW 02:04:59 11° NW 02:06:12 10° NW visible
24 Apr 5.5 23:45:36 30° NNE 23:45:36 30° NNE 23:48:15 10° NNE visible
25 Apr 6.0 01:25:43 18° NW 01:25:43 18° NW 01:29:00 10° NNW visible
25 Apr 5.9 23:07:04 21° NE 23:07:04 21° NE 23:09:00 10° NE visible
26 Apr 5.6 00:47:09 27° NW 00:47:09 27° NW 00:50:42 10° N visible
26 Apr 6.3 22:28:29 13° ENE 22:28:29 13° ENE 22:29:20 10° NE visible
27 Apr 5.2 00:08:35 37° NNW 00:08:35 37° NNW 00:12:05 10° N visible
27 Apr 5.1 23:29:59 39° NNE 23:29:59 39° NNE 23:33:14 10° NNE visible
